{"data":{"norad_id":57840,"epoch":"2026-09-20T22:42:39.801600Z","epoch_age_seconds":96029,"freshness":"FRESH","line1":"1 57840U 23141A   26263.94629400  .00000687  00000+0  33889-4 0  9993","line2":"2 57840  53.1600  95.6826 0001077  83.2058 276.9066 15.31703399170249","mean_motion":15.31703399,"eccentricity":0.0001077,"inclination_deg":53.16,"raan_deg":95.6826,"arg_perigee_deg":83.2058,"mean_anomaly_deg":276.9066,"bstar":3.3889e-5,"rev_number":17024,"period_min":94.012979336608,"perigee_km":469.99224004111,"apogee_km":471.4674859634,"semimajor_km":6848.8668630023,"source":"CELESTRAK","updated_at":"2026-09-21T09:00:33.711282Z"}}